User: anonymous   Login
Location: DARK SKY Beskydy - Park tmavé oblohy, www.darkskybeskydy.cz
(49.4926°N, 18.5016°E)
Time: 12:02:13
(UTC+02:00)
Language:

BlueWalker 3 - Orbit

View from above orbital plane
View from above orbital plane
View from above satellite
View from above satellite

Ground track
Ground track

The orbit data is extracted from the following two-line orbital elements,

1 53807U 22111AL  24205.53512655  .00009514  00000-0  36920-3 0  9997
2 53807  53.2353  26.0505 0008038 194.4447 165.6324 15.26763385103788
Epoch (UTC): 23 July 2024 12:50:34
Eccentricity: 0.0008038
inclination: 53.2353°
perigee height: 480 km
apogee height: 491 km
right ascension of ascending node: 26.0505°
argument of perigee: 194.4447°
revolutions per day: 15.26763385
mean anomaly at epoch: 165.6324°
orbit number at epoch: 10378

The dashed part of the orbit path shows where the satellite is in the earth's shadow,  

DLR